Other Public Products
Issued by NWS Grand Forks, ND

Home | Current Version | Previous Version | Graphics & Text | Print | Product List | Glossary On
Versions: 1 2 3 4 5 6 7 8 9 10 11 12 13 14 15 16 17 18 19 20 21 22 23 24 25 26 27 28 29 30 31 32 33 34 35 36 37 38 39 40 41 42 43 44 45 46 47 48 49 50
000
FPUS83 KFGF 200131
OPUFGF
PRAIRIE TO PINES WEATHER ROUNDUP
NATIONAL WEATHER SERVICE EASTERN NORTH DAKOTA/GRAND FORKS ND
700 PM CST THU JAN 19 2017

 **SATELLITE DATA USED TO AUGMENT SKY COVER AT AUTOMATED STATIONS**
 *****  WEATHER ACROSS EASTERN NORTH DAKOTA  *****

CITY           SKY/WX    TMP DP  RH WIND       PRES   REMARKS
GRAND FORKS    FOG       33  31  92 S15       29.55S VSB 1/2 WCI  23
GRAND FORKS AF CLOUDY    33  33  98 S16       29.54F FOG     WCI  23
GRAND CITY NWS NOT AVBL
BUXTON           N/A     32  32  99 S13         N/A  WCI  22
DEVILS LAKE    FAIR      24  21  88 S12       29.50R WCI  13
FARGO          FOG       36  35  96 S18       29.60R VSB 1/2
WAHPETON ARPT  CLOUDY    34  32  93 SE14      29.62S VSB 3/4 WCI  24
$$

 *****  WEATHER ACROSS CENTRAL AND WESTERN NORTH DAKOTA  *****

CITY           SKY/WX    TMP DP  RH WIND       PRES   REMARKS
JAMESTOWN      FOG       30  30 100 S13       29.52S VSB 3/4 WCI  20
BISMARCK       FAIR      15  12  88 SE5       29.50R WCI   8
MINOT          FAIR      28  25  88 SE5       29.44R WCI  23
MINOT AFB      FAIR      25  22  91 SE3       29.43R
GARRISON         N/A     20  16  84 CALM      29.45R
WILLISTON      FAIR      21  19  92 CALM      29.45R
DICKINSON      FAIR      26  20  77 SW6       29.42R WCI  19
HETTINGER      FAIR      20  18  92 NW7       29.46S WCI  11
$$

 *****  OTHER OBSERVATIONS NORTHEAST NORTH DAKOTA  *****

CITY           SKY/WX    TMP DP  RH WIND       PRES   REMARKS
WALHALLA       NOT AVBL
LANGDON        NOT AVBL
CAVALIER       FOG       27  27 100 S16       29.53R VSB 3/4 WCI  14
GRAFTON        CLOUDY    32  32 100 S13       29.56F FOG     WCI  22
CANDO          NOT AVBL
FORT TOTTEN      N/A     24  22  92 S8        29.95S WCI  15
ROLLA            N/A    N/A N/A N/A MISG        N/A
RUGBY            N/A     19  18  93 SE5       29.46S WCI  13
 ***** THE ABOVE OBSERVATIONS ARE NON NWS ARE NOT QUALITY
        CONTROLLED AND MAY MIS-REPORT RAIN FOR SNOW...
$$

 *****  OTHER OBSERVATIONS SOUTHEAST NORTH DAKOTA *****

CITY           SKY/WX    TMP DP  RH WIND       PRES   REMARKS
COOPERSTOWN    FOG       32  32 100 S17       29.54R VSB 3/4 WCI  21
VALLEY CITY    LGT RAIN  32  32 100 S17G26    29.56S VSB 1   WCI  21
OAKES          NOT AVBL
GWINNER        CLOUDY    34  34 100 SE8       29.58F VSB 1
SHEYENNE NWR     N/A     34  33  94 S5        29.95S
BUFFALO          N/A     33  32  96 E14         N/A  WCI  23
WYNDMERE         N/A     34  34 100 S8          N/A
 ***** THE ABOVE OBSERVATIONS ARE NON NWS ARE NOT QUALITY
       CONTROLLED AND MAY MIS-REPORT RAIN FOR SNOW...
$$

  *****  WEATHER ACROSS NORTHERN MINNESOTA  *****

CITY           SKY/WX    TMP DP  RH WIND       PRES   REMARKS
FLAG ISLAND    FAIR      30  27  86 SE10      29.57S WCI  21
WARROAD        FAIR      32  28  86 S7        29.57F
ROSEAU         FAIR      34  28  80 S7        29.56S
HALLOCK        FOG       32  30  93 S12       29.55S VSB 1/4 WCI  23
THF RVR FALLS  FAIR      33  31  92 S10       29.58F WCI  25
HALSTAD          N/A     35  34  97 S24         N/A  WCI  22
FOSSTON        FAIR      37  34  87 S12       29.59S
BAUDETTE       FAIR      32  30  92 SE7       29.58F
WASKISH        FAIR      39  37  93 S7        29.61S
CROOKSTON      FAIR      32  30  93 S14       29.58F FOG     WCI  22
$$
  *****  WEATHER ACROSS CENTRAL AND WEST MINNESOTA  *****

CITY           SKY/WX    TMP DP  RH WIND       PRES   REMARKS
BEMIDJI        FAIR      39  36  89 S9        29.62S
PARK RAPIDS    CLOUDY    39  34  82 S14       29.64S HAZE
WADENA         DRZL/FOG  34  34 100 S9        29.67R VSB 1/2
DETROIT LAKES  CLOUDY    37  36  93 S13       29.63S FOG
MOORHEAD       FOG       34  34 100 S17G23    29.61S VSB 3/4 WCI  23
FERGUS FALLS   FOG       36  36 100 SE15      29.68S VSB 1/2
ELBOW LAKE     SNOW      34  34 100 SE16      29.64S VSB 1/2 WCI  24
MORRIS MN      MIX PCPN  36  34  93 SE17      29.64S VSB 1/4
STAPLES        SNOW      34  34 100 S8        29.68S VSB 1/2
WHEATON        CLOUDY    41  41 100 SE13      29.64S FOG
$$
  *****  WEATHER ELSEWHERE ACROSS MINNESOTA  *****

CITY           SKY/WX    TMP DP  RH WIND       PRES   REMARKS
DULUTH         FAIR      34  32  92 SE7       29.74R
INTRNTL FALLS  FAIR      36  33  89 VRB5      29.63S
ELY            FAIR      37  36  93 S7        29.69F
CLOQUET        FAIR      39  32  75 SE5       29.73F
BRAINERD       FAIR      35  33  92 S6        29.70S FOG
HIBBING        FOG       26  26 100 SE3       29.70S VSB 1/4
ALEXANDRIA     FOG       34  34 100 SE14      29.67F VSB 1/2 WCI  25
SAINT CLOUD    CLOUDY    37  33  85 SE7       29.71F
MINNEAPOLIS    CLOUDY    36  31  82 SE7       29.74F
$$

  *****  WEATHER ACROSS SOUTH DAKOTA  *****

CITY           SKY/WX    TMP DP  RH WIND       PRES   REMARKS
SIOUX FALLS    FOG       37  37 100 SE10      29.62F VSB 1/2
BROOKINGS      FOG       35  34  96 SE16      29.60S VSB 3/4
WATERTOWN      CLOUDY    34  34 100 S13       29.57F FOG     WCI  25
HURON          CLOUDY    37  37 100 S13       29.55F FOG
SISSETON         N/A     35  35 100 SE8       29.59F
ABERDEEN       FOG       34  32  92 SE10      29.55F VSB 1
MITCHELL       CLOUDY    40  40 100 S15       29.57F FOG
PIERRE         FAIR      18  15  88 N3        29.48S
MOBRIDGE       MOCLDY    16  12  84 CALM      29.48S
RAPID CITY     FAIR      31  22  69 NW5       29.46R
$$

  *****  SOME WEATHER IN NEARBY STATES *****

CITY           SKY/WX    TMP DP  RH WIND       PRES   REMARKS
GLASGOW MT     FAIR      27  22  81 S7        29.45R WCI  19
GREAT FALLS MT FAIR      39  28  64 S12       29.46S
CHEYENNE WY    FAIR      36  17  46 W7        29.55R
SCOTTSBLUFF NE FAIR      40  25  55 W7        29.51R
OMAHA NE       FOG       42  38  85 CALM      29.66S VSB 1/2
DES MOINES IA  DRZL/FOG  38  37  97 E5        29.69F VSB 1/2
DAVENPORT IA   LGT RAIN  37  36  96 E10       29.76S FOG
CHICAGO IL     LGT RAIN  39  37  92 SE9       29.83S FOG
EAU CLAIRE WI  CLOUDY    37  32  82 CALM      29.78F
LA CROSSE WI   CLOUDY    39  34  82 E8        29.78F
$$

  *****  SOME NATIONAL WEATHER *****

CITY           SKY/WX    TMP DP  RH WIND       PRES   REMARKS
LA GUARDIA NY  MOCLDY    44  32  62 NW9       30.04S
RALEIGH NC     MOCLDY    50  40  68 CALM      30.02R
ATLANTA GA     CLOUDY    66  51  58 E12       29.90R
NEW ORLEANS LA CLOUDY    65  62  90 S6        29.80F
OKLAHOMA CITY  FAIR      51  46  83 S12       29.55S
ALBUQUERQUE NM CLOUDY    45  31  58 NW12      29.80R
SALT LAKE CITY FOG       30  28  92 W6        29.74R VSB 1/2 WCI  24
LOS ANGELES CA FAIR      58  51  78 W15       29.90R
BOISE ID       CLOUDY    36  31  82 SE7       29.68S
SEATTLE WA     CLOUDY    47  41  80 S10       29.50S
$$

*** WEATHER ACROSS MANITOBA...SASKATCHEWAN AND ONTARIO ***
                ***ONTARIO***

CITY           SKY/WX    TMP DP  RH WIND       PRES   REMARKS
GERALDTON      CLOUDY    34  32  93 S12G18    29.71F FOG
THUNDER BAY    CLOUDY    36  36 100 SE3       29.77R FOG
SIOUX LOOKOUT  CLOUDY    32  30  93 S7        29.62S
TORONTO        CLOUDY    36  30  80 S6        29.99F
BIG TROUT LK   CLEAR     28  25  86 SW6       29.45R WCI  22
PICKLE LAKE    PTCLDY    34  30  86 S12G18    29.55S
DRYDEN         CLEAR     30  30 100 S6        29.60F FOG     WCI  24
KENORA         CLEAR     30  28  93 S9        29.57S WCI  22
$$
                *** MANITOBA***

CITY           SKY/WX    TMP DP  RH WIND       PRES   REMARKS
BRANDON        PTCLDY    25  21  86 S8        29.44S WCI  16
DAUPHIN        CLEAR     34  28  80 W8        29.41R
ISLAND LAKE    MOCLDY    28  27  93 S3        29.45R
PILOT MOUND      N/A     21  18  86 S8          N/A  WCI  12
THE PAS        CLOUDY    28  27  93 VRB2      29.40S
THOMPSON       CLOUDY    28  28 100 VRB2      29.45R FOG
WINNIPEG       MOCLDY    27  25  93 S16       29.50S WCI  14
LYNN LAKE      CLOUDY    28  28 100 E3        29.42R
CHURCHILL      FLURRIES  21  21 100 E12       29.51R WCI   9
GILLAM         LGT SNOW  28  28 100 N6        29.47R WCI  22
$$
                ***SASKATCHEWAN***

CITY           SKY/WX    TMP DP  RH WIND       PRES   REMARKS
ESTEVAN        PTCLDY    25  21  86 S7        29.42F WCI  17
KINDERSLEY     MOCLDY    36  32  87 S15       29.26S
LLOYDMINSTER   MOCLDY    28  28 100 E8        29.20F WCI  20
PRINCE ALBERT  CLOUDY    34  30  86 E3        29.32R
REGINA         CLOUDY    32  28  86 SE3       29.39S
YORKTON        CLEAR     34  28  80 S13       29.40S WCC1F1C2F2C3F3C4F4C5F5C6F6C7F7C8F8C9F9CaFaCbFbCcFcCdFdCe!



USA.gov is the U.S. government's official web portal to all federal, state and local government web resources and services.